Weather History for North Bend, OR

Change the Weather History Date:

Monday, November 18, 2013

  Actual Average Record
Temperature  
Mean Temperature 52 °F 48 °F  
Max Temperature 55 °F 54 °F 70 °F (1951)
Min Temperature 48 °F 42 °F 29 °F (1994)
Degree Days  
Heating Degree Days 13 17  
Month to date heating degree days 244 273  
Since 1 July heating degree days 905 1239  
Cooling Degree Days 0 0  
Month to date cooling degree days 0 0  
Year to date cooling degree days 13 2  
Growing Degree Days 2 (Base 50)    
Moisture  
Dew Point 49 °F    
Average Humidity 92    
Maximum Humidity 100    
Minimum Humidity 83    
Precipitation  
Precipitation 0.52 in 0.36 in 6.67 in (1996)
Month to date precipitation 2.33 5.69  
Year to date precipitation 26.97 49.24  
Sea Level Pressure  
Sea Level Pressure 29.91 in    
Wind  
Wind Speed 8 mph (SSE)    
Max Wind Speed 16 mph    
Max Gust Speed 22 mph    
Visibility 10 miles    
Events      
T = Trace of Precipitation, MM = Missing Value Source: NWS Daily Summary

Daily Weather History Graph

Daily Weather History Graph

Search for Another Location

Airport:

Trip Planner

Search our weather history database for the weather conditions in past years. The results will help you decide how hot, cold, wet, or windy it might be!

Date:

Astronomy

Nov. 18, 2013 Rise Set
Actual Time 7:14 AM PST 4:49 PM PST
Civil Twilight 6:43 AM PST 5:20 PM PST
Nautical Twilight 6:08 AM PST 5:55 PM PST
Astronomical Twilight 5:34 AM PST 6:29 PM PST
Moon 5:55 PM PST (11/18) 8:08 AM PST (11/18)
Length of Visible Light 10h 36m
Length of Day
9h 34m
Full, 99% of the Moon is Illuminated
Nov 18
Full
Nov 25
Last Quarter
Dec 2
New
Dec 9
First Quarter
Dec 17
Full

Hourly Weather History & Observations

Time (PST) Temp. Dew Point Humidity Pressure Visibility Wind Dir Wind Speed Gust Speed Precip Events Conditions
12:15 AM 48.2 °F 46.4 °F 93% 30.04 in 10.0 mi SSE 8.1 mph - N/A   Overcast
12:35 AM 48.2 °F 46.4 °F 93% 30.03 in 10.0 mi SSE 8.1 mph - N/A   Overcast
12:55 AM 48.2 °F 46.4 °F 93% 30.03 in 10.0 mi South 6.9 mph - N/A   Overcast
1:15 AM 48.2 °F 46.4 °F 93% 30.03 in 10.0 mi South 8.1 mph - N/A   Overcast
1:35 AM 48.2 °F 46.4 °F 93% 30.03 in 10.0 mi SSE 6.9 mph - N/A   Overcast
1:55 AM 48.2 °F 46.4 °F 93% 30.03 in 10.0 mi SSE 6.9 mph - N/A   Overcast
2:15 AM 48.2 °F 46.4 °F 93% 30.03 in 10.0 mi SSE 8.1 mph - N/A   Overcast
2:35 AM 48.2 °F 46.4 °F 93% 30.03 in 10.0 mi SSE 6.9 mph - N/A   Overcast
2:55 AM 48.2 °F 46.4 °F 93% 30.03 in 10.0 mi SSE 5.8 mph - N/A   Overcast
3:15 AM 48.2 °F 46.4 °F 93% 30.02 in 10.0 mi SSE 4.6 mph - N/A   Overcast
3:35 AM 48.2 °F 46.4 °F 93% 30.02 in 10.0 mi SSE 4.6 mph - N/A   Overcast
3:55 AM 48.2 °F 46.4 °F 93% 30.01 in 10.0 mi SSE 6.9 mph - N/A   Overcast
4:15 AM 48.2 °F 46.4 °F 93% 30.00 in 10.0 mi South 6.9 mph - N/A   Overcast
4:35 AM 48.2 °F 46.4 °F 93% 30.00 in 10.0 mi South 5.8 mph - N/A   Overcast
4:55 AM 48.2 °F 44.6 °F 87% 29.99 in 10.0 mi South 5.8 mph - N/A   Overcast
5:15 AM 48.2 °F 46.4 °F 93% 29.98 in 10.0 mi SSE 5.8 mph - N/A   Overcast
5:35 AM 48.2 °F 44.6 °F 87% 29.98 in 10.0 mi South 6.9 mph - N/A   Overcast
5:55 AM 48.2 °F 44.6 °F 87% 29.99 in 10.0 mi South 6.9 mph - N/A   Mostly Cloudy
6:15 AM 48.2 °F 46.4 °F 93% 29.98 in 10.0 mi SSE 5.8 mph - N/A   Overcast
6:35 AM 48.2 °F 46.4 °F 93% 29.98 in 10.0 mi South 6.9 mph - N/A   Overcast
6:55 AM 48.2 °F 44.6 °F 87% 29.98 in 10.0 mi Calm Calm - N/A   Overcast
7:15 AM 48.2 °F 46.4 °F 93% 29.97 in 10.0 mi SSE 3.5 mph - N/A   Overcast
7:35 AM 48.2 °F 46.4 °F 93% 29.97 in 10.0 mi Calm Calm - N/A   Overcast
7:55 AM 48.2 °F 46.4 °F 93% 29.97 in 10.0 mi SE 4.6 mph - N/A   Overcast
8:15 AM 48.2 °F 46.4 °F 93% 29.97 in 10.0 mi SSE 8.1 mph - N/A   Overcast
8:35 AM 48.2 °F 46.4 °F 93% 29.97 in 10.0 mi SSE 8.1 mph - N/A   Overcast
8:55 AM 50.0 °F 46.4 °F 87% 29.97 in 10.0 mi South 8.1 mph - N/A   Overcast
9:15 AM 50.0 °F 46.4 °F 87% 29.97 in 10.0 mi SSE 5.8 mph - N/A   Overcast
9:35 AM 51.8 °F 46.4 °F 82% 29.97 in 10.0 mi SSE 5.8 mph - N/A   Overcast
9:55 AM 51.8 °F 46.4 °F 82% 29.97 in 10.0 mi SSE 6.9 mph - N/A   Overcast
10:15 AM 53.6 °F 46.4 °F 77% 29.96 in 10.0 mi South 6.9 mph - N/A   Mostly Cloudy
10:35 AM 51.8 °F 46.4 °F 82% 29.96 in 10.0 mi SSE 9.2 mph - N/A   Mostly Cloudy
10:55 AM 51.8 °F 48.2 °F 88% 29.96 in 10.0 mi SE 3.5 mph - N/A   Overcast
11:15 AM 53.6 °F 48.2 °F 82% 29.95 in 10.0 mi SSE 5.8 mph - N/A   Overcast
11:35 AM 51.8 °F 48.2 °F 88% 29.94 in 10.0 mi South 6.9 mph - N/A   Overcast
11:55 AM 53.6 °F 48.2 °F 82% 29.93 in 10.0 mi SSE 10.4 mph - N/A   Overcast
12:15 PM 53.6 °F 48.2 °F 82% 29.91 in 10.0 mi SSE 11.5 mph - N/A   Overcast
12:35 PM 55.4 °F 48.2 °F 77% 29.91 in 10.0 mi South 8.1 mph - N/A   Overcast
12:55 PM 55.4 °F 50.0 °F 82% 29.90 in 10.0 mi South 9.2 mph - N/A   Overcast
1:15 PM 53.6 °F 51.8 °F 94% 29.89 in 10.0 mi South 9.2 mph - N/A   Overcast
1:35 PM 53.6 °F 51.8 °F 94% 29.88 in 10.0 mi South 6.9 mph - 0.01 in   Overcast
1:55 PM 53.6 °F 51.8 °F 94% 29.88 in 10.0 mi South 8.1 mph - 0.02 in   Overcast
2:15 PM 53.6 °F 51.8 °F 94% 29.88 in 10.0 mi South 8.1 mph - N/A   Overcast
2:35 PM 53.6 °F 51.8 °F 94% 29.86 in 10.0 mi South 13.8 mph 26.5 mph 0.01 in   Overcast
2:55 PM 53.6 °F 51.8 °F 94% 29.85 in 10.0 mi South 16.1 mph 21.9 mph 0.03 in   Overcast
3:15 PM 53.6 °F 51.8 °F 94% 29.86 in 10.0 mi South 12.7 mph 17.3 mph 0.01 in   Overcast
3:35 PM 53.6 °F 51.8 °F 94% 29.85 in 10.0 mi South 10.4 mph 19.6 mph 0.02 in   Overcast
3:55 PM 53.6 °F 51.8 °F 94% 29.84 in 10.0 mi SSE 11.5 mph 17.3 mph 0.02 in   Overcast
4:15 PM 53.6 °F 51.8 °F 94% 29.84 in 10.0 mi South 16.1 mph 24.2 mph N/A   Overcast
4:35 PM 53.6 °F 51.8 °F 94% 29.84 in 10.0 mi South 16.1 mph 19.6 mph 0.01 in   Overcast
4:55 PM 53.6 °F 51.8 °F 94% 29.83 in 10.0 mi South 11.5 mph 21.9 mph 0.02 in   Overcast
5:15 PM 53.6 °F 51.8 °F 94% 29.83 in 10.0 mi South 15.0 mph 21.9 mph 0.01 in   Overcast
5:35 PM 53.6 °F 53.6 °F 100% 29.84 in 10.0 mi South 15.0 mph 19.6 mph 0.05 in   Overcast
5:55 PM 53.6 °F 53.6 °F 100% 29.83 in 10.0 mi SSE 12.7 mph 17.3 mph 0.07 in   Overcast
6:15 PM 53.6 °F 53.6 °F 100% 29.83 in 10.0 mi SSE 8.1 mph - 0.01 in   Overcast
6:35 PM 53.6 °F 53.6 °F 100% 29.82 in 10.0 mi SSE 9.2 mph - 0.03 in   Overcast
6:55 PM 53.6 °F 53.6 °F 100% 29.81 in 10.0 mi SSE 11.5 mph 17.3 mph 0.04 in   Overcast
7:15 PM 53.6 °F 53.6 °F 100% 29.81 in 10.0 mi SSE 9.2 mph - N/A   Overcast
7:35 PM 53.6 °F 53.6 °F 100% 29.81 in 10.0 mi SSE 10.4 mph - N/A   Overcast
7:55 PM 53.6 °F 53.6 °F 100% 29.81 in 10.0 mi SSE 9.2 mph - N/A   Overcast
8:15 PM 53.6 °F 53.6 °F 100% 29.81 in 9.0 mi SSE 6.9 mph - 0.01 in   Overcast
8:35 PM 53.6 °F 53.6 °F 100% 29.81 in 10.0 mi SSE 8.1 mph - 0.04 in   Overcast
8:55 PM 53.6 °F 51.8 °F 94% 29.81 in 10.0 mi SSE 10.4 mph - 0.09 in   Overcast
9:15 PM 53.6 °F 51.8 °F 94% 29.81 in 10.0 mi South 10.4 mph 21.9 mph 0.05 in   Overcast
9:35 PM 53.6 °F 51.8 °F 94% 29.81 in 9.0 mi South 8.1 mph 16.1 mph 0.06 in   Overcast
9:55 PM 55.4 °F 53.6 °F 94% 29.81 in 7.0 mi South 8.1 mph 20.7 mph 0.14 in   Overcast
10:15 PM 53.6 °F 51.8 °F 94% 29.82 in 10.0 mi SSE 6.9 mph - 0.03 in   Overcast
10:35 PM 53.6 °F 51.8 °F 94% 29.82 in 10.0 mi South 4.6 mph - 0.04 in   Overcast
10:55 PM 55.4 °F 53.6 °F 94% 29.81 in 10.0 mi South 13.8 mph 21.9 mph 0.06 in   Overcast
11:15 PM 55.4 °F 53.6 °F 94% 29.81 in 10.0 mi South 15.0 mph 20.7 mph 0.01 in   Overcast
11:35 PM 55.4 °F 53.6 °F 94% 29.81 in 10.0 mi SSW 17.3 mph 23.0 mph 0.02 in   Overcast
11:55 PM 55.4 °F 55.4 °F 100% 29.82 in 10.0 mi South 13.8 mph 28.8 mph 0.03 in   Overcast